User: anonymous   Login
Location: Homewood
(41.1836°S, 175.9581°E)
Time: 15:57:34
(UTC+00:00)
Language:

SeaSat 1 - Orbit

View from above orbital plane
View from above orbital plane
View from above satellite
View from above satellite

Ground track
Ground track

The orbit data is extracted from the following two-line orbital elements,

1 10967U 78064A   24173.90485885  .00000431  00000-0  16262-3 0  9990
2 10967 107.9970 253.7252 0002072 286.9548  73.1370 14.44986826416078
Epoch (UTC): 21 June 2024 21:42:59
Eccentricity: 0.0002072
inclination: 107.9970°
perigee height: 740 km
apogee height: 743 km
right ascension of ascending node: 253.7252°
argument of perigee: 286.9548°
revolutions per day: 14.44986826
mean anomaly at epoch: 73.1370°
orbit number at epoch: 41607

The dashed part of the orbit path shows where the satellite is in the earth's shadow,  

DLR